Other Surface Observations
Issued by NWS Charleston, SC

Home | Current Version | Previous Version | Text Only | Print | Product List | Glossary On
Versions: 1 2 3 4 5 6 7 8 9 10 11 12 13 14 15 16 17 18 19 20 21 22 23 24 25 26 27 28 29 30 31 32 33 34 35 36 37 38 39 40 41 42 43 44 45 46 47 48 49 50
000
SXUS52 KCHS 232025
OSOCHS

MARINE OBSERVATIONS
NATIONAL WEATHER SERVICE CHARLESTON SC
400 PM EDT THU OCT 23 2014

...DOWNTOWN CHARLESTON AND HARBOR...

CITY           SKY/WX    TMP DP  RH WIND       PRES   REMARKS
WATERFRONT PRK   N/A     70 N/A N/A W5G12       N/A
FORT JOHNSON   NOT AVBL

...LAKE MOULTRIE...

CITY           SKY/WX    TMP DP  RH WIND       PRES   REMARKS
PINOPOLIS      NOT AVBL

...LAKE AND SUPPLEMENTAL COASTAL OBSERVATIONS...

STATION/POSITION TIME  TEMP    WIND        PRES    WAVE   SWELL
                       AIR SEA DIR/SP/G            HT/PER HT/PER/DIR
                 (UTC) (F)     (DEG/KT/KT) (MB)    (FT/S) (FT/S/D)
FORT PULASKI     2000   67      50/  2/  4 1016.1F
SAPELO ISLAND    NOT AVBL
UPR LAKE MARION  NOT AVBL
WINYAH BAY       2000   67     300/  6     1014.0S
LAKE MURRAY      1900   69     250/  3/  7 1015.2F
ACE BASIN NERRS  2000   70     300/  2     1016.0S


...C-MAN AND BUOY OBSERVATIONS...

STATION/POSITION TIME  TEMP    WIND        PRES    WAVE   SWELL
                       AIR SEA DIR/SP/G            HT/PER HT/PER/DIR
                 (UTC) (F)     (DEG/KT/KT) (MB)    (FT/S) (FT/S/D)
BUOY 41004       2000   63 78  310/ 10/ 12 1015.2F   2/ 5   2/ 5
BUOY 41008       2000   65 75  360/  6/ 10 1016.2F   2/ 5   2/ 50/ 5
FOLLY BEACH CMAN 2000   68     260/  5/  8 1016.0F
CAPERS NS BUOY   NOT AVBL
FRIPP NS BUOY    NOT AVBL
5E ST. MARYS GA  2000      76                N/A     3/ 6
FRYING PAN BUOY  2000   64 74  270/ 16/ 19 1014.9F   2/ 4   2/110/10
BUOY 41025       2000   64     290/ 17/ 21 1011.1F   5/ 6   2/ 70/10
CAPE LOOKOUT NC  2000   66     280/ 12/ 14 1011.9F
BUOY 41002       1854   71 78  300/ 14/ 17 1013.6    8/ 8   7/340/ 8
BUOY 41010       2000   74 81   10/  8/ 12 1014.5S   3/ 7   3/ 7
BUOY 41012       NOT AVBL
ST AUGUSTINE FL  2000   69      20/ 12/ 14 1016.0F


$$



USA.gov is the U.S. government's official web portal to all federal, state and local government web resources and services.